SB KEPS @ AMSAT $ORB12019.O Orbital Elements 12019.OSCAR
HR AMSAT ORBITAL ELEMENTS FOR OSCAR SATELLITES FROM WA5QGD FORT WORTH,TX January 19, 2012 Send SUBSCRIBE KEPS/UNSUBSCRIBE KEPS to [email protected] only BID: ORB12019.O TO ALL RADIO AMATEURS BT
Satellite: AO-07 Catalog number: 07530 Epoch time: 12019.03096837 Element set: 284 Inclination: 101.3974 deg RA of node: 022.0751 deg Eccentricity: 0.0011784 Arg of perigee: 216.5746 deg Mean anomaly: 143.4517 deg Mean motion: 12.53587100 rev/day Decay rate: -2.7e-07 rev/day^2 Epoch rev: 70123 Checksum: 270
Satellite: FO-29 Catalog number: 24278 Epoch time: 12019.21489772 Element set: 755 Inclination: 098.5749 deg RA of node: 139.5767 deg Eccentricity: 0.0351195 Arg of perigee: 057.6736 deg Mean anomaly: 305.7906 deg Mean motion: 13.52975513 rev/day Decay rate: 5.0e-08 rev/day^2 Epoch rev: 76167 Checksum: 357
Satellite: SO-33 Catalog number: 25509 Epoch time: 12019.31779474 Element set: 147 Inclination: 031.4344 deg RA of node: 101.7229 deg Eccentricity: 0.0353034 Arg of perigee: 331.9485 deg Mean anomaly: 026.2535 deg Mean motion: 14.28653930 rev/day Decay rate: 3.65e-06 rev/day^2 Epoch rev: 69120 Checksum: 292
Satellite: RS-22 Catalog number: 27939 Epoch time: 12019.72260765 Element set: 5 Inclination: 097.8235 deg RA of node: 228.1016 deg Eccentricity: 0.0013922 Arg of perigee: 023.3606 deg Mean anomaly: 336.8227 deg Mean motion: 14.63871333 rev/day Decay rate: 4.62e-06 rev/day^2 Epoch rev: 44401 Checksum: 283
Satellite: VO-52 Catalog number: 28650 Epoch time: 12019.85275160 Element set: 3 Inclination: 097.6169 deg RA of node: 058.0114 deg Eccentricity: 0.0026646 Arg of perigee: 168.9329 deg Mean anomaly: 191.2488 deg Mean motion: 14.82619960 rev/day Decay rate: 6.92e-06 rev/day^2 Epoch rev: 36284 Checksum: 326
Satellite: SO-67 Catalog number: 35870 Epoch time: 12019.73511875 Element set: 603 Inclination: 097.2539 deg RA of node: 060.7119 deg Eccentricity: 0.0002366 Arg of perigee: 022.2094 deg Mean anomaly: 115.3315 deg Mean motion: 15.22579031 rev/day Decay rate: 3.469e-05 rev/day^2 Epoch rev: 12986 Checksum: 301
Satellite: HO-68 Catalog number: 36122 Epoch time: 12019.78476535 Element set: 120 Inclination: 100.3849 deg RA of node: 082.0215 deg Eccentricity: 0.0007766 Arg of perigee: 091.0181 deg Mean anomaly: 269.1815 deg Mean motion: 13.16292582 rev/day Decay rate: -4.4e-07 rev/day^2 Epoch rev: 10073 Checksum: 280
/EX SB KEPS @ AMSAT $ORB12019.D Orbital Elements 12019.MICROS
HR AMSAT ORBITAL ELEMENTS FOR THE MICROSATS FROM WA5QGD FORT WORTH,TX January 19, 2012 Send SUBSCRIBE KEPS/UNSUBSCRIBE KEPS to [email protected] only BID: ORB12019.D TO ALL RADIO AMATEURS BT
Satellite: UO-11 Catalog number: 14781 Epoch time: 12019.33740084 Element set: 765 Inclination: 097.9773 deg RA of node: 080.0326 deg Eccentricity: 0.0009307 Arg of perigee: 152.4095 deg Mean anomaly: 207.7610 deg Mean motion: 14.80280844 rev/day Decay rate: 6.35e-06 rev/day^2 Epoch rev: 49776 Checksum: 308
Satellite: AO-16 Catalog number: 20439 Epoch time: 12018.86495143 Element set: 376 Inclination: 098.4127 deg RA of node: 326.5887 deg Eccentricity: 0.0010023 Arg of perigee: 244.3831 deg Mean anomaly: 115.6315 deg Mean motion: 14.32008634 rev/day Decay rate: 1.33e-06 rev/day^2 Epoch rev: 14848 Checksum: 289
Satellite: LO-19 Catalog number: 20442 Epoch time: 12019.39994680 Element set: 300 Inclination: 098.3779 deg RA of node: 330.6492 deg Eccentricity: 0.0011156 Arg of perigee: 233.3635 deg Mean anomaly: 126.6514 deg Mean motion: 14.32229998 rev/day Decay rate: 1.51e-06 rev/day^2 Epoch rev: 14874 Checksum: 310
Satellite: AO-27 Catalog number: 22825 Epoch time: 12018.89183214 Element set: 11 Inclination: 098.5583 deg RA of node: 324.1794 deg Eccentricity: 0.0008618 Arg of perigee: 007.1156 deg Mean anomaly: 353.0147 deg Mean motion: 14.29422173 rev/day Decay rate: 9.9e-07 rev/day^2 Epoch rev: 95500 Checksum: 295
Satellite: IO-26 Catalog number: 22826 Epoch time: 12019.06124886 Element set: 758 Inclination: 098.5527 deg RA of node: 324.7570 deg Eccentricity: 0.0009084 Arg of perigee: 000.7998 deg Mean anomaly: 359.3208 deg Mean motion: 14.29691826 rev/day Decay rate: 9.7e-07 rev/day^2 Epoch rev: 95515 Checksum: 344
Satellite: GO-32 Catalog number: 25397 Epoch time: 12019.51570968 Element set: 682 Inclination: 098.3468 deg RA of node: 005.7252 deg Eccentricity: 0.0001704 Arg of perigee: 033.7365 deg Mean anomaly: 326.3930 deg Mean motion: 14.23252262 rev/day Decay rate: -9.4e-07 rev/day^2 Epoch rev: 70273 Checksum: 298
Satellite: NO-44 Catalog number: 26931 Epoch time: 12019.76395178 Element set: 949 Inclination: 067.0517 deg RA of node: 145.4366 deg Eccentricity: 0.0005617 Arg of perigee: 278.9894 deg Mean anomaly: 081.0568 deg Mean motion: 14.29753247 rev/day Decay rate: 4.03e-06 rev/day^2 Epoch rev: 53788 Checksum: 351
Satellite: SO-50 Catalog number: 27607 Epoch time: 12019.53094541 Element set: 667 Inclination: 064.5586 deg RA of node: 030.0812 deg Eccentricity: 0.0084861 Arg of perigee: 277.4282 deg Mean anomaly: 081.7185 deg Mean motion: 14.72168393 rev/day Decay rate: 7.12e-06 rev/day^2 Epoch rev: 48793 Checksum: 322
Satellite: CO-55 Catalog number: 27844 Epoch time: 12019.57512595 Element set: 291 Inclination: 098.7049 deg RA of node: 030.1273 deg Eccentricity: 0.0009229 Arg of perigee: 297.6861 deg Mean anomaly: 062.3391 deg Mean motion: 14.20947544 rev/day Decay rate: 1.89e-06 rev/day^2 Epoch rev: 44364 Checksum: 326
Satellite: CO-57 Catalog number: 27848 Epoch time: 12018.56716377 Element set: 239 Inclination: 098.7137 deg RA of node: 028.4035 deg Eccentricity: 0.0009034 Arg of perigee: 305.8022 deg Mean anomaly: 054.2310 deg Mean motion: 14.20708757 rev/day Decay rate: 1.40e-06 rev/day^2 Epoch rev: 44344 Checksum: 292
Satellite: AO-51 Catalog number: 28375 Epoch time: 12018.94947204 Element set: 172 Inclination: 098.1255 deg RA of node: 351.3901 deg Eccentricity: 0.0083798 Arg of perigee: 135.4210 deg Mean anomaly: 225.3734 deg Mean motion: 14.40884510 rev/day Decay rate: 1.65e-06 rev/day^2 Epoch rev: 39713 Checksum: 301
Satellite: CP3 Catalog number: 31129 Epoch time: 12019.57513408 Element set: 72 Inclination: 097.8870 deg RA of node: 036.1577 deg Eccentricity: 0.0100707 Arg of perigee: 228.0715 deg Mean anomaly: 131.1862 deg Mean motion: 14.52855850 rev/day Decay rate: 6.20e-06 rev/day^2 Epoch rev: 25225 Checksum: 280
Satellite: CO-65 Catalog number: 32785 Epoch time: 12018.69404457 Element set: 206 Inclination: 097.8216 deg RA of node: 083.1954 deg Eccentricity: 0.0014440 Arg of perigee: 189.6401 deg Mean anomaly: 170.4517 deg Mean motion: 14.82621130 rev/day Decay rate: 1.223e-05 rev/day^2 Epoch rev: 20146 Checksum: 283
Satellite: PRISM Catalog number: 33493 Epoch time: 12019.72393105 Element set: 345 Inclination: 098.1481 deg RA of node: 157.0240 deg Eccentricity: 0.0020168 Arg of perigee: 063.0040 deg Mean anomaly: 297.3237 deg Mean motion: 14.83065682 rev/day Decay rate: 2.246e-05 rev/day^2 Epoch rev: 16159 Checksum: 277
Satellite: SOHLA-1 Catalog number: 33496 Epoch time: 12019.89028227 Element set: 627 Inclination: 098.0934 deg RA of node: 132.7555 deg Eccentricity: 0.0007065 Arg of perigee: 148.0061 deg Mean anomaly: 212.1575 deg Mean motion: 14.69845197 rev/day Decay rate: 4.80e-06 rev/day^2 Epoch rev: 16031 Checksum: 301
Satellite: TISAT-1 Catalog number: 36799 Epoch time: 12019.35333466 Element set: 617 Inclination: 098.0782 deg RA of node: 094.5618 deg Eccentricity: 0.0013998 Arg of perigee: 300.1378 deg Mean anomaly: 059.8451 deg Mean motion: 14.81425326 rev/day Decay rate: 1.343e-05 rev/day^2 Epoch rev: 8230 Checksum: 315
Satellite: STUDSAT Catalog number: 36801 Epoch time: 12018.86998676 Element set: 321 Inclination: 098.0845 deg RA of node: 094.2446 deg Eccentricity: 0.0012283 Arg of perigee: 288.4371 deg Mean anomaly: 071.5498 deg Mean motion: 14.82862483 rev/day Decay rate: 3.047e-05 rev/day^2 Epoch rev: 8223 Checksum: 324
Satellite: OOREOS Catalog number: 37224 Epoch time: 11330.25217324 Element set: 0033 Inclination: 071.9741 deg RA of node: 041.3371 deg Eccentricity: 0.0020052 Arg of perigee: 337.4654 deg Mean anomaly: 022.5620 deg Mean motion: 14.77385090 rev/day Decay rate: 2.151e-05 rev/day^2 Epoch rev: 00594 Checksum: 243
Satellite: FO-69 Catalog number: 37227 Epoch time: 12018.13838078 Element set: 0079 Inclination: 071.9715 deg RA of node: 285.2240 deg Eccentricity: 0.0018772 Arg of perigee: 243.3066 deg Mean anomaly: 116.6174 deg Mean motion: 14.76896760 rev/day Decay rate: 4.22e-06 rev/day^2 Epoch rev: 01379 Checksum: 322
Satellite: FO-70 Catalog number: 37380 Epoch time: 12018.38985263 Element set: 0083 Inclination: 071.9747 deg RA of node: 285.0401 deg Eccentricity: 0.0019270 Arg of perigee: 240.0754 deg Mean anomaly: 119.8494 deg Mean motion: 14.76656006 rev/day Decay rate: 4.83e-06 rev/day^2 Epoch rev: 01372 Checksum: 306
/EX SB KEPS @ AMSAT $ORB12019.W Orbital Elements 12019.WEATHER
HR AMSAT ORBITAL ELEMENTS FOR WEATHER SATELLITES FROM WA5QGD FORT WORTH,TX January 19, 2012 Send SUBSCRIBE KEPS/UNSUBSCRIBE KEPS to [email protected] only BID: ORB12019.W TO ALL RADIO AMATEURS BT
Satellite: NOAA-10 Catalog number: 16969 Epoch time: 12019.51695955 Element set: 785 Inclination: 098.5997 deg RA of node: 051.1169 deg Eccentricity: 0.0011782 Arg of perigee: 316.2725 deg Mean anomaly: 043.7531 deg Mean motion: 14.27521379 rev/day Decay rate: 7.4e-07 rev/day^2 Epoch rev: 31851 Checksum: 329
Satellite: NOAA-11 Catalog number: 19531 Epoch time: 12019.30388665 Element set: 785 Inclination: 098.7398 deg RA of node: 107.5782 deg Eccentricity: 0.0010491 Arg of perigee: 293.5672 deg Mean anomaly: 066.4426 deg Mean motion: 14.14949347 rev/day Decay rate: -4.0e-08 rev/day^2 Epoch rev: 20331 Checksum: 316
